www.pogodaiklimat.ru

Погода и климат >> Архив погоды >> Пакистан >> Dera Ismail Khan


ПОГОДА в Dera Ismail Khan

  • Прогноз погоды в Dera Ismail Khan
  • Монитор погоды в Dera Ismail Khan
  • Климат города

АРХИВ ПОГОДЫ в Dera Ismail Khan

Время (UTC), дата Ветер
(напр.,м/с)
 
Видим.   Явления Облачность Т
(С)
Тd
(С)
f
(%)
Тe
(С)
Тes
(С)
Комфортность P
(гПа)
Po
(гПа)
Тmin
(С)
Tmax
(С)
R
(мм)
R24
(мм)
S
(см)
12 12.12 СВ 1 2000 м дым {туман} ясно +16.0 +13.8 87 +17 +17 1017.4 997.4 +20.5
15 12.12 С 1 2000 м дымка {туман} ясно +14.0 +11.2 83 +15 +15 1019.5 1000.0
18 12.12 штиль 0 1000 м дымка {туман} ясно +12.5 +10.6 88 +12 +12 1020.1 999.5
21 12.12 С 1 1000 м дымка {туман} ясно +11.0 +9.0 87 +12 +12 1020.8 1000.0
00 13.12 СВ 1 500 м туман ясно +10.0 +9.0 93 +9 +9 1021.4 1000.6
03 13.12 С 1 500 м туман ясно +10.0 +9.0 93 +10 +11 1022.8 1002.1 +7.5
06 13.12 СВ 1 2000 м дымка {туман} ясно +15.0 +12.3 84 +16 +24 1024.2 1003.7
09 13.12 СВ 1 2000 м дым {туман} ясно +18.5 +14.2 76 +21 +28 комфорт 1022.0 1000.0
12 13.12 В 1 2000 м дым ясно +18.0 +14.6 81 +20 +20 1020.6 1000.4 +19.5
15 13.12 штиль 0 1000 м дымка ясно +13.5 +11.6 88 +13 +13 1021.6 1000.0
18 13.12 штиль 0 1000 м дымка {туман} ясно +12.0 +10.1 88 +11 +11 1022.3 1001.6
21 13.12 штиль 0 500 м туман ясно +10.0 +9.0 93 +9 +9 1023.0 1000.0
00 14.12 СЗ 1 500 м туман ясно +9.5 +8.5 93 +10 +10 1023.3 1002.3
03 14.12 штиль 0 500 м туман ясно +8.0 +6.9 93 +7 +8 1025.1 1004.1 +6.5
06 14.12 СЗ 1 1000 м дымка ясно +15.0 +12.3 84 +16 +24 1026.1 1005.5
09 14.12 Ю 1 4000 м дым ясно +20.0 +14.9 72 +24 +31 комфорт 1023.5 1000.0
12 14.12 штиль 0 4000 м дым ясно +19.0 +15.6 81 +20 +20 1022.1 1002.0 +22.5
15 14.12 штиль 0 1000 м дымка ясно +15.5 +13.7 89 +15 +15 1024.5 1000.0
18 14.12 штиль 0 1000 м дымка ясно +13.0 +11.1 88 +12 +12 1025.6 1004.9
21 14.12 штиль 0 500 м туман ясно +11.0 +10.0 94 +10 +10 1024.9 1000.0
00 15.12 штиль 0 500 м туман ясно +9.0 +8.0 93 +8 +8 1023.0 1002.1
03 15.12 штиль 0 500 м туман ясно +7.0 +5.9 93 +6 +6 1024.0 1002.9 +6.1
06 15.12 штиль 0 2000 м дым ясно +16.0 +1.4 37 +16 +24 1024.8 1004.3
09 15.12 СВ 1 4000 м дым ясно +21.0 +10.0 49 +24 +31 комфорт 1022.8 1000.0
12 15.12 штиль 0 4000 м дым ясно +21.5 +13.8 62 +24 +24 комфорт 1021.2 1001.2 +22.5
15 15.12 штиль 0 4000 м дым ясно +13.5 +9.6 77 +13 +13 1023.3 1000.0
18 15.12 СВ 1 2000 м дымка ясно +10.0 +7.9 87 +10 +10 1025.1 1004.2
21 15.12 С 1 500 м туман ясно +9.0 +8.0 93 +9 +9 1025.2 1000.0
00 16.12 СВ 1 500 м туман ясно +7.5 +6.4 93 +8 +8 1023.4 1002.4
03 16.12 З 1 1000 м дымка {туман} ясно +6.0 +4.8 92 +6 +6 1024.2 1003.0 +4.5
06 16.12 штиль 0 2000 м дым ясно +17.0 +9.4 61 +17 +25 1025.1 1004.7
09 16.12 штиль 0 4000 м дым ясно +22.5 +13.0 55 +25 +33 комфорт 1023.0 1000.0
12 16.12 штиль 0 10 км ясно +21.5 +13.8 62 +24 +24 комфорт 1020.7 1000.7 +23.5
15 16.12 штиль 0 4000 м ясно +14.0 +9.1 72 +14 +14 1021.9 1000.0
18 16.12 штиль 0 2000 м дымка ясно +11.0 +7.9 81 +10 +10 1023.9 1003.0
21 16.12 штиль 0 2000 м дымка ясно +9.5 +7.4 87 +9 +9 1022.9 1000.0
00 17.12 штиль 0 500 м туман ясно +8.0 +5.8 86 +7 +7 1022.7 1001.7
03 17.12 штиль 0 500 м туман ясно +5.5 +4.3 92 +4 +5 1023.3 1002.1 +4.1
06 17.12 СЗ 1 2000 м дымка ясно +13.5 +9.6 77 +15 +22 1023.7 1003.1
09 17.12 СЗ 1 4000 м дым ясно +21.5 +11.7 54 +24 +30 комфорт 1020.5 1000.0
12 17.12 СЗ 1 10 км ясно +23.0 +10.4 45 +25 +25 комфорт 1018.5 998.6 +24.5
15 17.12 штиль 0 4000 м ясно +13.5 +7.4 67 +13 +13 1020.0 1000.0
18 17.12 штиль 0 4000 м дым ясно +11.5 +6.2 70 +11 +11 1021.9 1001.2
21 17.12 штиль 0 2000 м дымка ясно +10.0 +6.8 80 +9 +9 1021.6 1000.0
00 18.12 штиль 0 1000 м дымка ясно +7.0 +4.7 85 +6 +6 1019.9 998.9
03 18.12 штиль 0 1000 м дымка ясно +5.5 +3.1 85 +5 +5 1020.7 999.5 +4.1
06 18.12 СЗ 1 2000 м дым ясно +15.0 +8.1 63 +16 +24 1021.2 1000.7
09 18.12 СЗ 1 4000 м дым ясно +22.5 +11.9 51 +25 +32 комфорт 1017.9 1000.0
12 18.12 ЮЗ 1 4000 м ясно +23.0 +13.6 55 +26 +26 жарко 1015.8 996.0 +24.1
15 18.12 штиль 0 4000 м ясно +15.0 +9.2 68 +15 +15 1017.4 1000.0
18 18.12 штиль 0 4000 м дым ясно +12.0 +7.9 76 +12 +12 1019.0 998.3
21 18.12 штиль 0 2000 м дымка ясно +9.0 +6.9 87 +8 +8 1018.5 1000.0
00 19.12 штиль 0 500 м туман ясно +7.0 +5.9 93 +6 +6 1016.5 995.6
03 19.12 штиль 0 500 м туман ясно +5.5 +4.3 92 +4 +5 1017.5 996.4 +4.5
06 19.12 штиль 0 2000 м дым ясно +14.5 +9.7 73 +14 +23 1018.9 998.4

 

Местоположение метеостанции Dera Ismail Khan (Пакистан): широта 31.82 долгота 70.92 высота над уровнем моря 173 м.

В архиве по умолчанию представлена погода в Dera Ismail Khan за последнюю неделю. Архивные данные за месяц целиком и за предыдущие месяцы, начиная с января 2011 года, Вы можете получить, выбрав интересующий диапазон дат из раскрывающегося списка и нажав кнопку "Ввод!".


*Определитесь, кто Вы:
робот инопланетянин человек

Внимание! Время в таблицах - всемирное. Для получения местного времени необходимо прибавить поправку, которая в Dera Ismail Khan равна 5 ч.

Смотрите также архив погоды в соседних городах и на ближайших метеорологических станциях:

Погода в Mianwali (Пакистан) (99 км)
Погода в Zhob (Пакистан) (147 км)
Погода в Sargodha (Пакистан) (167 км)
Погода в Raifiqui Airbase (Пакистан) (168 км)
Погода в Multan (Пакистан) (187 км)
Погода в Kohat (Пакистан) (200 км)
Погода в Faisal Abad (Пакистан) (211 км)
Погода в Parachinar (Пакистан) (241 км)
Погода в Barkhan (Пакистан) (244 км)
Погода в Peshawar (Пакистан) (252 км)

Пояснения к столбцам:

Ветер - указаны скорость ветра в м/с - средняя за 10 мин, порывы в срок и между сроками (в фигурных скобках) и направление, откуда дует ветер: С - северный, СВ - северо-восточный, В - восточный, ЮВ - юго-восточный, Ю - южный, ЮЗ - юго-западный, З - западный, СЗ - северо-западный.
Видимость - горизонтальная дальность видимости в метрах или километрах. При видимости от 1 до 10 км при отсутствии осадков обычно наблюдается дымка, при ухудшении видимости до 1 км и менее - туман. В сухую погоду видимость может ухудшаться дымом, пылью или мглою.
Явления - указаны атмосферные явления, наблюдавшиеся в срок или в последний час перед сроком; фигурными скобками обозначены явления, наблюдавшиеся между сроками (за 1-3 часа до срока); квадратными скобками обозначены град или гололедные отложения с указанием их диаметра в мм.
Облачность - указаны через наклонную черту общая и нижняя облачность в баллах и высота нижней границы облаков в метрах; квадратными скобками обозначены формы облаков: Ci - перистые, Cs - перисто-слоистые, Cc - перисто-кучевые, Ac - высококучевые, As - высокослоистые, Sc - слоисто-кучевые, Ns - слоисто-дождевые, Cu - кучевые, Cb - кучево-дождевые. Подробнее классификацию облаков см. в Атласе облаков (PDF).
T - Температура воздуха - температура, измеренная на высоте 2 м над землей.
Td - Температура точки росы - температура, при понижении до которой содержащийся в воздухе водяной пар достигнет насыщения.
f - Относительная влажность воздуха - влажноcть воздуха, измеренная на высоте 2 м над землей.
Te - Эффективная температура - температура, которую ощущает одетый по сезону человек в тени. Характеристика душности погоды. При расчете учитывается влияние влажности воздуха и скорости ветра на теплоощущения человека.
Tes - Эффективная температура на солнце - температура, которую ощущает человек, с поправкой на солнечный нагрев. Характеристика знойности погоды. Зависит от высоты солнца над горизонтом, облачности и скорости ветра. Ночью, в пасмурную погоду, а также при ветре 12 м/с и более поправка равна нулю.
P - Атмосферное давление - приведенное к уровню моря атмосферное давление.
Po - Атмосферное давление - измеренное на уровне метеостанции атмосферное давление.
Tmin - Минимальная температура - минимум температуры воздуха на высоте 2 м над землей.
Tmax - Максимальная температура - максимум температуры воздуха на высоте 2 м над землей.
R - Количество осадков - Количество выпавших осадков за период времени, мм. При наведении курсора мыши на число - период времени, за который выпало указанное количество осадков.
R24 - Количество осадков - Количество выпавших осадков за 24 часа, мм.
S - Снежный покров - Высота снежного покрова, см. При наведении курсора мыши на число - состояние снежного покрова и степень покрытия местности в баллах.